Погода в Поселке Мелиораторов

Россия / Тюменская область     57°12′33″N   65°36′06″E
темп.,
°C
ветер,
м/с
пор.,
м/с
влажн.,
%
обл.,
%
осадки,
мм/ч
давл.,
гПа
погр.,
м
25 января, пн
пн2523:00−24ююв5998100 1.8 1033334
02:00−23ююв4798100 0.8 1031309
05:00−22юв2498100 0.9 1031114
08:00−22вюв1298100 0.0 103120
11:00−21в129499 0.0 1032120
14:00−19ююв119098 0.0 1031200
17:00−20юв239893 0.1 103151
20:00−17ююв4796100 0.3 1030209
26 января, вт
вт2623:00−12ю3695100 0.7 1028218
02:00−6ююз4896100 0.2 1026231
05:00−3зюз51193100 0.2 1025366
08:00−3зюз5119593 0.1 1025380
11:00−2з6119291 0.3 1025509
14:00−1з6109288 0.0 1025519
17:00−2зюз6109292 0.0 1025468
20:00−5зюз51291100 0.0 1026378
27 января, ср
ср2723:00−4зюз51290100 0.0 1025441
02:00−4зюз61390100 0.0 1024519
05:00−5з5138990 0.0 1025377
08:00−6з5119199 0.0 1026305
11:00−6з5119259 0.0 1026388
14:00−4з599054 0.0 1027526
17:00−5зюз499272 0.0 1027310
20:00−8юз479447 0.0 1027137
28 января, чт
чт2823:00−8юз499445 0.0 1026150
02:00−7юз4119372 0.0 1025249
05:00−4юз6158686 0.0 1023499
08:00−4зюз61583100 0.0 1022464
11:00−3зюз71583100 0.0 1021579
14:00−1зюз71582100 0.0 1019697
17:00−1юз71583100 0.0 1019712
20:00−1з81496100 0.8 1019880
29 января, пт
пт2923:00−1з61291100 1.1 1020628
02:00−3з4993100 0.0 1021332
05:00−4зюз4893100 0.0 1022215
08:00−6зюз3494100 0.0 102287
11:00−6зюз2493100 0.0 1023151
14:00−4юз1290100 0.0 1024233
17:00−7вюв1195100 0.0 102421
20:00−8всв3596100 0.1 1025147